STARLINK-31571, 59362

Orbit data source: Space-Track

STARLINK-31571, 59362 is a payload satellite owned by SpaceX/Seattle (US) in LEO that was launched on Sun, 31 Mar 2024 UTC via an FALCON 9 launch vehicle from the Air Force Eastern Test Range (AFETR). Payload-class satellites include a variety of spacecraft equipped with specific instruments for various scientific and technological missions. These include communications satellites like Starlink; space stations such as the ISS; scientific satellites like the Hubble; Earth observation satellites from companies like Planet Labs, Umbra, and HawkEye 360; GPS; miniature CubeSats for education and research; and military/defense satellites.

Loading next visibility...
Identifier
59362, 2024-060Q
Orbit
LEO
Country
Flag of USUS
Related business
Manufacturer
SpaceX/Seattle
Mission
Operational Commercial Communications
Bus & Motor
STARLINK V2M, Unknown motor
Mass
730 kg wet, ~700 kg dry
Launch date (UTC)
2024-03-31 (2 years ago)
Launch vehicle
FALCON 9
Launch site
Air Force Eastern Test Range (AFETR)
Object type
Payload
Rocket body
Debris
Shape & HBR
Box + 2 Pan, 17.7 m
Radar Cross Section
33.884 m², Large (>1 m²)

Expand to show TLE details & history
Last TLE update: 2 days ago

TLE from 2 days ago
0 STARLINK-31571
1 59362U 24060Q   26171.36602307 -.00000193  00000-0  24962-5 0  9993
2 59362  43.0048  40.1842 0000894 279.6134  80.4617 15.27568880125765
Epoch: 2026-06-20T08:47Z
TLE epoch observation values (Epoch: 2026-06-20T08:47:04.393Z)
Latitude
0.00001°
Longitude
-0.16577°
Altitude
482.757 km
Speed
7.626 km/s
True Right ascension
02h 40m 44s
True Declination
0° 00' 00"
Sunlit
Object was in daylight at epoch
Visualization orbit readout
Latitude
Unknown
Longitude
Unknown
Altitude
Unknown
Speed
Unknown
Apparent Right ascension
Unknown
Apparent Declination
Unknown
Sunlit
N/A
Visualization observer readout
Local Sidereal Time
00:49:58
Azimuth
Unknown
Elevation
Unknown
Doppler factor
Unknown
Orbital elements
Apogee altitude
485.64 km
Perigee altitude
484.413 km
Semi-major axis
6,863.164 km
Eccentricity
0.00009
Inclination
43.0048°
RAAN
40.1842°
Arg. of periapsis
279.6134°
True anomaly
80.4718°
Mean anomaly
80.4617°
Eccentric anomaly
80.46675°
Mean motion
3.8173 °/min
Orbital period
94.31 mins
BSTAR
0.0000024962
Loading maneuver chart data...
Computing Atmospheric mass density...
Loading historical data...
Loading historical data...
Loading historical data...
Loading historical data...
Loading historical data...
Loading historical data...
Loading historical data...

Documentation

Showing up to 5 results
|